TimeCDT,TemperatureF,Dew PointF,Humidity,Sea Level PressureIn,VisibilityMPH,Wind Direction,Wind SpeedMPH,Gust SpeedMPH,PrecipitationIn,Events,Conditions,WindDirDegrees,DateUTC
12:55 AM,63.0,61.0,93,29.90,7.0,Calm,Calm,-,N/A,,Mostly Cloudy,0,2012-09-26 05:55:00
1:55 AM,63.0,61.0,93,29.89,8.0,SSW,9.2,-,N/A,,Mostly Cloudy,200,2012-09-26 06:55:00
2:55 AM,64.9,62.1,90,29.90,10.0,West,4.6,-,N/A,,Clear,280,2012-09-26 07:55:00
3:55 AM,63.0,61.0,93,29.89,10.0,West,3.5,-,N/A,,Clear,260,2012-09-26 08:55:00
4:55 AM,63.0,61.0,93,29.90,9.0,Calm,Calm,-,N/A,,Scattered Clouds,0,2012-09-26 09:55:00
5:55 AM,64.0,62.1,93,29.93,10.0,WSW,3.5,-,N/A,,Mostly Cloudy,240,2012-09-26 10:55:00
6:26 AM,64.4,62.6,94,29.95,2.0,WSW,3.5,-,0.07,Rain,Light Rain,250,2012-09-26 11:26:00
6:36 AM,64.4,62.6,94,29.95,8.0,WSW,4.6,-,0.07,Rain,Light Rain,240,2012-09-26 11:36:00
6:55 AM,63.0,62.1,97,29.95,10.0,SW,3.5,-,0.07,,Mostly Cloudy,220,2012-09-26 11:55:00
7:55 AM,63.0,62.1,97,29.96,8.0,Calm,Calm,-,N/A,,Clear,0,2012-09-26 12:55:00
8:55 AM,64.9,63.0,93,29.98,8.0,Calm,Calm,-,N/A,,Partly Cloudy,0,2012-09-26 13:55:00
9:37 AM,64.4,64.4,100,29.99,7.0,North,5.8,-,N/A,,Scattered Clouds,360,2012-09-26 14:37:00
9:55 AM,64.0,61.0,90,30.00,8.0,North,5.8,-,N/A,,Partly Cloudy,360,2012-09-26 14:55:00
10:55 AM,64.0,57.9,80,30.02,10.0,North,5.8,-,N/A,,Mostly Cloudy,360,2012-09-26 15:55:00
11:55 AM,64.0,55.9,75,30.03,10.0,North,3.5,-,N/A,,Overcast,360,2012-09-26 16:55:00
12:17 PM,64.4,55.4,73,30.05,10.0,Calm,Calm,-,N/A,Thunderstorm,Overcast,0,2012-09-26 17:17:00
12:36 PM,64.4,55.4,73,30.07,10.0,Calm,Calm,-,N/A,,Overcast,0,2012-09-26 17:36:00
12:55 PM,64.0,55.0,73,30.07,10.0,Calm,Calm,-,N/A,Thunderstorm,Overcast,0,2012-09-26 17:55:00
1:26 PM,62.6,55.4,77,30.04,10.0,North,5.8,-,N/A,,Clear,360,2012-09-26 18:26:00
1:55 PM,63.0,55.9,78,30.04,10.0,North,4.6,-,N/A,,Partly Cloudy,350,2012-09-26 18:55:00
2:55 PM,66.9,57.0,70,30.04,10.0,Calm,Calm,-,N/A,,Clear,0,2012-09-26 19:55:00
3:55 PM,71.1,55.0,57,30.03,10.0,NNE,4.6,-,N/A,,Clear,20,2012-09-26 20:55:00
4:55 PM,71.1,52.0,51,30.03,10.0,NNE,8.1,-,N/A,,Clear,20,2012-09-26 21:55:00
5:55 PM,69.1,55.9,63,30.05,10.0,Calm,Calm,-,N/A,,Clear,0,2012-09-26 22:55:00
6:55 PM,66.9,51.1,57,30.07,10.0,Calm,Calm,-,N/A,,Clear,0,2012-09-26 23:55:00
7:55 PM,62.1,50.0,65,30.08,10.0,Calm,Calm,-,N/A,,Clear,0,2012-09-27 00:55:00
8:55 PM,60.1,52.0,75,30.10,10.0,NNE,5.8,-,N/A,,Clear,30,2012-09-27 01:55:00
9:55 PM,60.1,48.9,67,30.12,10.0,NNE,4.6,-,N/A,,Clear,30,2012-09-27 02:55:00
10:55 PM,55.9,46.9,72,30.13,10.0,NE,6.9,-,N/A,,Clear,50,2012-09-27 03:55:00
11:55 PM,54.0,45.0,72,30.14,10.0,NNE,5.8,-,N/A,,Clear,30,2012-09-27 04:55:00